Main page
METAR-TAF:

METAR-TAF

Airports :

Oil platform

P11-b, Netherlands

latitude: 52-21-36N, longitude: 3-20-30E, elevation: 24 m

Current weather observation

The report was made 22 minutes ago, at 18:55 UTC
Wind 27 kt from the West/Southwest
Temperature 8°C
Humidity 87%
Pressure 1018 hPa
Visibility 10 km or more
Few clouds at a height of 1300 ft
Broken clouds at a height of 1600 ft
Broken clouds at a height of 2000 ft

METAR: EHPG 291855Z AUTO 24027KT 9999 FEW013 BKN016 BKN020 08/06 Q1018

Time: 20:17 (19:17 UTC)


TAF: missing

Weather observations and forecasts of more than 4000 airports (METAR and TAF reports).

The available stations are represented by yellow and red dots on the map.

Hover mouse over dot to see the name of the station.

Then click to see weather observations and forecasts.

To change the map : click on the green buttons with a black cross to zoom in, on the green button with a dash to zoom out, or on the green arrows for adjacent maps.


METAR-TAF: